Wadesboro, NC

5:39 PM EDT on July 24, 2017 (GMT -0400)
Anson County

Weather History for KAFP - April, 2014

Change the Weather History Date:

Sunday, April 20, 2014

  Actual Average (KCLT) Record (KCLT)
Temperature  
Mean Temperature 59 °F -  
Max Temperature 68 °F 74 °F 91 °F (1896)
Min Temperature 48 °F 49 °F 28 °F (1983)
Degree Days  
Heating Degree Days 6    
Growing Degree Days 9 (Base 50)    
Moisture  
Dew Point 40 °F    
Average Humidity 55    
Maximum Humidity 87    
Minimum Humidity 27    
Precipitation  
Precipitation 0.00 in - - ()
Sea Level Pressure  
Sea Level Pressure 30.19 in    
Wind  
Wind Speed 8 mph (North)    
Max Wind Speed 16 mph    
Max Gust Speed 24 mph    
Visibility 10 miles    
Events Rain    
Averages and records for this station are not official NWS values.
T = Trace of Precipitation, MM = Missing Value Source: NWS Daily Summary

Daily Weather History Graph

Daily Weather History Graph

Search for Another Location

Airport or City:

Trip Planner

Search our weather history database for the weather conditions in past years. The results will help you decide how hot, cold, wet, or windy it might be!

Date:

Astronomy

Apr. 20, 2014 Rise Set
Actual Time 6:42 AM EDT 7:56 PM EDT
Civil Twilight 6:15 AM EDT 8:23 PM EDT
Nautical Twilight 5:44 AM EDT 8:54 PM EDT
Astronomical Twilight 5:11 AM EDT 9:27 PM EDT
Moon 12:30 AM EDT (4/20) 11:05 AM EDT (4/20)
Length of Visible Light 14h 07m
Length of Day
13h 14m
Waning Gibbous, 69% of the Moon is Illuminated
Apr 20
Waning Gibbous
Apr 22
Last Quarter
Apr 29
New
May 6
First Quarter
May 14
Full

Hourly Weather History & Observations

Time (EDT) Temp. Dew Point Humidity Pressure Visibility Wind Dir Wind Speed Gust Speed Precip Events Conditions
12:15 AM 51.8 °F 46.9 °F 83% 30.19 in 10.0 mi North 8.1 mph - N/A   Overcast
12:35 AM 51.8 °F 46.4 °F 82% 30.18 in 10.0 mi North 11.5 mph 17.3 mph N/A   Overcast
12:55 AM 51.3 °F 46.6 °F 84% 30.18 in 10.0 mi North 9.2 mph - N/A   Overcast
1:15 AM 51.3 °F 46.4 °F 83% 30.18 in 10.0 mi North 9.2 mph - N/A   Overcast
1:35 AM 51.6 °F 46.4 °F 82% 30.18 in 10.0 mi North 9.2 mph - N/A   Overcast
1:55 AM 51.8 °F 46.2 °F 81% 30.17 in 10.0 mi North 8.1 mph - N/A   Overcast
2:15 AM 51.8 °F 46.4 °F 82% 30.17 in 10.0 mi North 6.9 mph - N/A   Overcast
2:35 AM 51.8 °F 46.2 °F 81% 30.16 in 10.0 mi North 8.1 mph - N/A   Overcast
2:55 AM 51.8 °F 45.9 °F 80% 30.16 in 10.0 mi North 8.1 mph - N/A   Overcast
3:15 AM 51.8 °F 45.5 °F 79% 30.16 in 10.0 mi North 9.2 mph - N/A   Overcast
3:35 AM 50.9 °F 46.0 °F 83% 30.16 in 10.0 mi NNE 6.9 mph - N/A Rain Rain
3:55 AM 50.4 °F 46.2 °F 86% 30.16 in 10.0 mi North 5.8 mph - N/A   Light Drizzle
4:15 AM 50.2 °F 46.2 °F 86% 30.16 in 10.0 mi North 4.6 mph - N/A   Overcast
4:35 AM 50.0 °F 46.0 °F 86% 30.16 in 10.0 mi North 4.6 mph - N/A   Overcast
4:55 AM 50.0 °F 46.0 °F 86% 30.16 in 10.0 mi North 4.6 mph - N/A   Mostly Cloudy
5:15 AM 50.0 °F 45.9 °F 86% 30.16 in 10.0 mi North 4.6 mph - N/A   Mostly Cloudy
5:35 AM 50.5 °F 44.8 °F 81% 30.17 in 10.0 mi North 4.6 mph - N/A   Mostly Cloudy
5:55 AM 50.4 °F 44.1 °F 79% 30.17 in 10.0 mi North 4.6 mph - N/A   Scattered Clouds
6:15 AM 50.5 °F 43.3 °F 76% 30.17 in 10.0 mi North 5.8 mph - N/A Rain Light Rain
6:35 AM 50.2 °F 42.8 °F 76% 30.18 in 10.0 mi North 4.6 mph - N/A   Scattered Clouds
6:55 AM 50.0 °F 41.9 °F 74% 30.18 in 10.0 mi North 5.8 mph - N/A   Scattered Clouds
7:15 AM 50.0 °F 41.0 °F 71% 30.18 in 10.0 mi North 5.8 mph - N/A   Scattered Clouds
7:35 AM 50.2 °F 40.3 °F 69% 30.18 in 10.0 mi North 6.9 mph - N/A   Clear
7:55 AM 50.9 °F 39.4 °F 65% 30.19 in 10.0 mi North 6.9 mph - N/A   Clear
8:15 AM 52.7 °F 39.4 °F 61% 30.19 in 10.0 mi North 8.1 mph - N/A   Clear
8:35 AM 53.8 °F 38.3 °F 56% 30.20 in 10.0 mi North 10.4 mph - N/A   Clear
8:55 AM 54.5 °F 38.5 °F 55% 30.21 in 10.0 mi North 8.1 mph - N/A   Clear
9:15 AM 55.8 °F 36.9 °F 49% 30.21 in 10.0 mi North 11.5 mph 16.1 mph N/A   Clear
9:35 AM 57.2 °F 35.4 °F 44% 30.21 in 10.0 mi North 10.4 mph 16.1 mph N/A   Clear
9:55 AM 58.3 °F 35.1 °F 42% 30.22 in 10.0 mi NNE 11.5 mph 19.6 mph N/A   Clear
10:15 AM 59.0 °F 32.7 °F 37% 30.23 in 10.0 mi North 16.1 mph 19.6 mph N/A   Clear
10:35 AM 59.9 °F 32.2 °F 35% 30.24 in 10.0 mi NNE 15.0 mph 24.2 mph N/A   Clear
10:55 AM 60.4 °F 30.9 °F 33% 30.24 in 10.0 mi NNE 12.7 mph 23.0 mph N/A   Clear
11:15 AM 61.7 °F 31.1 °F 32% 30.23 in 10.0 mi North 15.0 mph 19.6 mph N/A   Clear
11:35 AM 62.4 °F 31.6 °F 31% 30.23 in 10.0 mi NNE 9.2 mph 21.9 mph N/A   Clear
11:55 AM 63.0 °F 30.4 °F 29% 30.23 in 10.0 mi NNE 12.7 mph 19.6 mph N/A   Clear
12:15 PM 63.5 °F 30.9 °F 29% 30.23 in 10.0 mi North 16.1 mph 23.0 mph N/A   Clear
12:35 PM 64.8 °F 32.2 °F 30% 30.22 in 10.0 mi North 13.8 mph 19.6 mph N/A   Clear
12:55 PM 64.9 °F 32.2 °F 29% 30.22 in 10.0 mi North 11.5 mph 16.1 mph N/A   Mostly Cloudy
1:15 PM 66.6 °F 32.7 °F 28% 30.21 in 10.0 mi North 11.5 mph 18.4 mph N/A   Mostly Cloudy
1:35 PM 65.5 °F 32.0 °F 29% 30.21 in 10.0 mi North 11.5 mph 18.4 mph N/A   Overcast
1:55 PM 66.2 °F 33.3 °F 29% 30.21 in 10.0 mi NNE 8.1 mph 18.4 mph N/A   Overcast
2:15 PM 66.7 °F 31.6 °F 27% 30.20 in 10.0 mi NNE 12.7 mph 20.7 mph N/A   Overcast
2:35 PM 66.2 °F 31.5 °F 27% 30.19 in 10.0 mi North 12.7 mph 17.3 mph N/A   Overcast
2:55 PM 66.6 °F 31.1 °F 27% 30.18 in 10.0 mi North 9.2 mph 18.4 mph N/A   Overcast
3:15 PM 66.2 °F 32.0 °F 28% 30.18 in 10.0 mi North 10.4 mph 16.1 mph N/A   Overcast
3:35 PM 66.4 °F 33.3 °F 29% 30.18 in 10.0 mi North 6.9 mph - N/A   Overcast
3:55 PM 67.6 °F 35.1 °F 30% 30.17 in 10.0 mi North 9.2 mph - N/A   Overcast
4:15 PM 68.2 °F 36.0 °F 31% 30.17 in 10.0 mi NNE 10.4 mph - N/A   Overcast
4:35 PM 68.4 °F 35.4 °F 30% 30.17 in 10.0 mi North 9.2 mph - N/A   Overcast
4:55 PM 68.2 °F 37.6 °F 33% 30.17 in 10.0 mi NNE 12.7 mph - N/A   Overcast
5:15 PM 67.8 °F 37.2 °F 32% 30.17 in 10.0 mi North 4.6 mph - N/A   Overcast
5:55 PM 68.9 °F 37.0 °F 31% 30.16 in 10.0 mi NNE 11.5 mph 19.6 mph N/A   Overcast
6:15 PM 68.2 °F 38.7 °F 34% 30.16 in 10.0 mi NNE 9.2 mph 16.1 mph N/A   Overcast
6:35 PM 67.5 °F 40.8 °F 38% 30.16 in 10.0 mi North 5.8 mph - N/A   Overcast
6:55 PM 67.1 °F 39.9 °F 37% 30.17 in 10.0 mi NNE 6.9 mph - N/A   Overcast
7:15 PM 66.2 °F 39.7 °F 38% 30.16 in 10.0 mi North 6.9 mph - N/A   Overcast
7:35 PM 65.3 °F 40.8 °F 41% 30.16 in 10.0 mi North 5.8 mph - N/A   Overcast
7:55 PM 64.9 °F 40.6 °F 41% 30.17 in 10.0 mi North 6.9 mph - N/A   Overcast
8:15 PM 64.4 °F 40.3 °F 41% 30.18 in 10.0 mi North 5.8 mph - N/A   Overcast
8:35 PM 63.3 °F 41.0 °F 44% 30.18 in 10.0 mi North 4.6 mph - N/A   Overcast
8:55 PM 61.5 °F 40.3 °F 46% 30.18 in 10.0 mi North 4.6 mph - N/A   Mostly Cloudy
9:15 PM 59.7 °F 40.5 °F 49% 30.18 in 10.0 mi North 4.6 mph - N/A   Scattered Clouds
9:35 PM 58.5 °F 41.0 °F 52% 30.19 in 10.0 mi North 4.6 mph - N/A   Scattered Clouds
9:55 PM 58.1 °F 41.2 °F 53% 30.18 in 10.0 mi Calm Calm - N/A   Scattered Clouds
10:15 PM 54.9 °F 43.3 °F 65% 30.19 in 10.0 mi Calm Calm - N/A   Clear
10:35 PM 53.4 °F 45.0 °F 73% 30.19 in 10.0 mi Calm Calm - N/A   Clear
10:55 PM 51.4 °F 44.6 °F 77% 30.18 in 10.0 mi Calm Calm - N/A   Clear
11:15 PM 50.0 °F 45.5 °F 85% 30.18 in 10.0 mi Calm Calm - N/A   Clear
11:55 PM 48.2 °F 44.6 °F 87% 30.18 in 10.0 mi Calm Calm - N/A   Clear